| time (UTC) | temp F | wind direction | speed MPH | gust MPH | rain 1hr in | rain 24hr in | rain mn in | humidity % | barometer mb |
| 20260505123827 | 63 | 90 | 3.0 | 7.0 | 0.00 | 0.00 | 0.00 | 44 | |
| 20260505123327 | 63 | 158 | 2.0 | 8.0 | 0.00 | 0.00 | 0.00 | 44 | |
| 20260505122827 | 64 | 21 | 4.0 | 10.0 | 0.00 | 0.00 | 0.00 | 42 | |
| 20260505122326 | 63 | 69 | 2.0 | 6.0 | 0.00 | 0.00 | 0.00 | 44 | |
| 20260505121826 | 63 | 108 | 3.0 | 8.0 | 0.00 | 0.00 | 0.00 | 42 | |
| 20260505121326 | 63 | 31 | 3.0 | 9.0 | 0.00 | 0.00 | 0.00 | 43 | |
| 20260505120825 | 63 | 63 | 3.0 | 9.0 | 0.00 | 0.00 | 0.00 | 44 | |
| 20260505120325 | 63 | 34 | 3.0 | 9.0 | 0.00 | 0.00 | 0.00 | 44 | |
| 20260505115825 | 61 | 25 | 3.0 | 6.0 | 0.00 | 0.00 | 0.00 | 46 | |
| 20260505115325 | 61 | 70 | 3.0 | 9.0 | 0.00 | 0.00 | 0.00 | 46 | |
| 20260505114824 | 62 | 44 | 2.0 | 6.0 | 0.00 | 0.00 | 0.00 | 47 | |
| 20260505114324 | 61 | 94 | 3.0 | 7.0 | 0.00 | 0.00 | 0.00 | 48 | |
| 20260505113824 | 61 | 80 | 1.0 | 7.0 | 0.00 | 0.00 | 0.00 | 48 | |
| 20260505113323 | 61 | 83 | 3.0 | 8.0 | 0.00 | 0.00 | 0.00 | 48 | |
| 20260505112823 | 61 | 13 | 3.0 | 7.0 | 0.00 | 0.00 | 0.00 | 48 | |
| 20260505112323 | 60 | 90 | 4.0 | 12.0 | 0.00 | 0.00 | 0.00 | 50 | |
| 20260505111823 | 60 | 118 | 4.0 | 10.0 | 0.00 | 0.00 | 0.00 | 49 | |
| 20260505111322 | 60 | 46 | 3.0 | 8.0 | 0.00 | 0.00 | 0.00 | 48 | |
| 20260505110822 | 59 | 353 | 2.0 | 6.0 | 0.00 | 0.00 | 0.00 | 50 | |
| 20260505110322 | 58 | 69 | 3.0 | 8.0 | 0.00 | 0.00 | 0.00 | 49 | |
| 20260505101818 | 58 | 114 | 3.0 | 9.0 | 0.00 | 0.00 | 0.00 | 50 | |
| 20260505100817 | 60 | 7 | 5.0 | 10.0 | 0.00 | 0.00 | 0.00 | 51 | |
| 20260505095817 | 59 | 41 | 4.0 | 9.0 | 0.00 | 0.00 | 0.00 | 51 | |
| 20260505094816 | 59 | 80 | 3.0 | 8.0 | 0.00 | 0.00 | 0.00 | 53 | |
| 20260505093815 | 58 | 66 | 3.0 | 9.0 | 0.00 | 0.00 | 0.00 | 53 | |
| 20260505093315 | 58 | 87 | 4.0 | 11.0 | 0.00 | 0.00 | 0.00 | 51 | |
| 20260505092815 | 58 | 42 | 3.0 | 8.0 | 0.00 | 0.00 | 0.00 | 53 | |
| 20260505092315 | 58 | 86 | 4.0 | 11.0 | 0.00 | 0.00 | 0.00 | 53 | |
| 20260505091814 | 58 | 87 | 6.0 | 11.0 | 0.00 | 0.00 | 0.00 | 49 | |
| 20260505091314 | 60 | 11 | 3.0 | 7.0 | 0.00 | 0.00 | 0.00 | 52 | |
| 20260505090313 | 59 | 18 | 4.0 | 8.0 | 0.00 | 0.00 | 0.00 | 53 | |
| 20260505085813 | 58 | 49 | 3.0 | 7.0 | 0.00 | 0.00 | 0.00 | 55 | |
| 20260505085313 | 57 | 34 | 3.0 | 10.0 | 0.00 | 0.00 | 0.00 | 54 | |
| 20260505084813 | 56 | 32 | 3.0 | 9.0 | 0.00 | 0.00 | 0.00 | 56 | |
| 20260505084312 | 56 | 94 | 3.0 | 9.0 | 0.00 | 0.00 | 0.00 | 59 | |
| 20260505083812 | 56 | 59 | 3.0 | 9.0 | 0.00 | 0.00 | 0.00 | 60 | |
| 20260505083312 | 56 | 28 | 3.0 | 10.0 | 0.00 | 0.00 | 0.00 | 61 | |
| 20260505082811 | 55 | 60 | 4.0 | 10.0 | 0.00 | 0.00 | 0.00 | 63 | |
| 20260505082311 | 55 | 6 | 4.0 | 11.0 | 0.00 | 0.00 | 0.00 | 63 | |
| 20260505081811 | 55 | 60 | 2.0 | 8.0 | 0.00 | 0.00 | 0.00 | 66 | |
| 20260505081311 | 54 | 82 | 3.0 | 8.0 | 0.00 | 0.00 | 0.00 | 66 | |
| 20260505080810 | 54 | 83 | 3.0 | 10.0 | 0.00 | 0.00 | 0.00 | 67 | |
| 20260505080310 | 53 | 108 | 2.0 | 5.0 | 0.00 | 0.00 | 0.00 | 68 | |
| 20260505075309 | 53 | 52 | 2.0 | 6.0 | 0.00 | 0.00 | 0.00 | 72 | |
| 20260505074809 | 53 | 93 | 2.0 | 6.0 | 0.00 | 0.00 | 0.00 | 73 | |
| 20260505074309 | 52 | 42 | 2.0 | 6.0 | 0.00 | 0.00 | 0.00 | 75 | |
| 20260505073809 | 51 | 42 | 3.0 | 8.0 | 0.00 | 0.00 | 0.00 | 76 | |
| 20260505073308 | 52 | 42 | 2.0 | 8.0 | 0.00 | 0.00 | 0.00 | 77 | |
| 20260505072808 | 51 | 38 | 1.0 | 4.0 | 0.00 | 0.00 | 0.00 | 79 | |
| 20260505072308 | 50 | 44 | 1.0 | 5.0 | 0.00 | 0.00 | 0.00 | 79 | |
| 20260505071808 | 50 | 41 | 0.0 | 1.0 | 0.00 | 0.00 | 0.00 | 80 | |
| 20260505071307 | 50 | 31 | 0.0 | 4.0 | 0.00 | 0.00 | 0.00 | 81 | |
| 20260505070807 | 49 | 68 | 1.0 | 5.0 | 0.00 | 0.00 | 0.00 | 81 | |
| 20260505070307 | 50 | 107 | 0.0 | 3.0 | 0.00 | 0.00 | 0.00 | 82 | |
| 20260505065806 | 49 | 77 | 1.0 | 4.0 | 0.00 | 0.00 | 0.00 | 83 | |
| 20260505065306 | 49 | 24 | 0.0 | 3.0 | 0.00 | 0.00 | 0.00 | 84 | |
| 20260505064806 | 49 | 103 | 1.0 | 6.0 | 0.00 | 0.00 | 0.00 | 85 | |
| 20260505064306 | 48 | 77 | 1.0 | 4.0 | 0.00 | 0.00 | 0.00 | 86 | |
| 20260505063805 | 48 | 76 | 1.0 | 4.0 | 0.00 | 0.00 | 0.00 | 87 | |
| 20260505063305 | 49 | 98 | 1.0 | 4.0 | 0.00 | 0.00 | 0.00 | 88 | |
| 20260505062805 | 48 | 98 | 1.0 | 5.0 | 0.00 | 0.00 | 0.00 | 90 | |
| 20260505062304 | 48 | 141 | 1.0 | 5.0 | 0.00 | 0.00 | 0.00 | 91 | |
| 20260505061804 | 48 | 122 | 0.0 | 3.0 | 0.00 | 0.00 | 0.00 | 92 | |
| 20260505061304 | 48 | 0 | 0.0 | 0.0 | 0.00 | 0.00 | 0.00 | 92 | |
| 20260505060804 | 46 | 0 | 0.0 | 0.0 | 0.00 | 0.00 | 0.00 | 92 | |
| 20260505060303 | 46 | 7 | 0.0 | 1.0 | 0.00 | 0.00 | 0.00 | 92 | |
| 20260505055803 | 46 | 0 | 0.0 | 0.0 | 0.00 | 0.00 | 0.00 | 92 | |
| 20260505055303 | 45 | 0 | 0.0 | 0.0 | 0.00 | 0.00 | 0.00 | 92 | |
| 20260505054801 | 45 | 0 | 0.0 | 0.0 | 0.00 | 0.00 | 0.00 | 91 | |
| 20260505054301 | 45 | 21 | 0.0 | 3.0 | 0.00 | 0.00 | 0.00 | 92 | |
| 20260505053801 | 45 | 32 | 0.0 | 1.0 | 0.00 | 0.00 | 0.00 | 92 | |
| 20260505053300 | 45 | 0 | 0.0 | 0.0 | 0.00 | 0.00 | 0.00 | 91 | |
| 20260505052800 | 44 | 0 | 0.0 | 0.0 | 0.00 | 0.00 | 0.00 | 92 | |
| 20260505052300 | 45 | 0 | 0.0 | 0.0 | 0.00 | 0.00 | 0.00 | 92 | |
| 20260505051800 | 45 | 0 | 0.0 | 0.0 | 0.00 | 0.00 | 0.00 | 91 | |
| 20260505051259 | 45 | 0 | 0.0 | 0.0 | 0.00 | 0.00 | 0.00 | 91 | |
| 20260505050758 | 45 | 0 | 0.0 | 0.0 | 0.00 | 0.00 | 0.00 | 91 | |
| 20260505050258 | 45 | 0 | 0.0 | 0.0 | 0.00 | 0.00 | 0.00 | 91 | |
| 20260505041756 | 45 | 0 | 0.0 | 0.0 | 0.00 | 0.00 | 0.00 | 91 | |
| 20260505041255 | 45 | 0 | 0.0 | 0.0 | 0.00 | 0.00 | 0.00 | 91 | |
| 20260505040750 | 45 | 0 | 0.0 | 0.0 | 0.00 | 0.00 | 0.00 | 91 | |
| 20260505040250 | 45 | 0 | 0.0 | 0.0 | 0.00 | 0.00 | 0.00 | 90 | |
| 20260505035750 | 45 | 0 | 0.0 | 0.0 | 0.00 | 0.00 | 0.00 | 90 | |
| 20260505035249 | 45 | 0 | 0.0 | 0.0 | 0.00 | 0.00 | 0.00 | 90 | |
| 20260505034749 | 46 | 0 | 0.0 | 0.0 | 0.00 | 0.00 | 0.00 | 90 | |
| 20260505034249 | 46 | 0 | 0.0 | 0.0 | 0.00 | 0.00 | 0.00 | 90 | |
| 20260505033748 | 46 | 0 | 0.0 | 0.0 | 0.00 | 0.00 | 0.00 | 90 | |
| 20260505033247 | 46 | 0 | 0.0 | 0.0 | 0.00 | 0.00 | 0.00 | 90 | |
| 20260505032747 | 46 | 0 | 0.0 | 0.0 | 0.00 | 0.00 | 0.00 | 90 | |
| 20260505031746 | 45 | 18 | 0.0 | 1.0 | 0.00 | 0.00 | 0.00 | 90 | |
| 20260505031246 | 46 | 0 | 0.0 | 0.0 | 0.00 | 0.00 | 0.00 | 90 | |
| 20260505030745 | 46 | 38 | 0.0 | 2.0 | 0.00 | 0.00 | 0.00 | 90 | |
| 20260505030245 | 46 | 10 | 0.0 | 1.0 | 0.00 | 0.00 | 0.00 | 90 | |
| 20260505025745 | 46 | 87 | 0.0 | 1.0 | 0.00 | 0.00 | 0.00 | 89 | |
| 20260505025245 | 46 | 0 | 0.0 | 0.0 | 0.00 | 0.00 | 0.00 | 89 | |
| 20260505024744 | 46 | 0 | 0.0 | 0.0 | 0.00 | 0.00 | 0.00 | 89 | |
| 20260505024244 | 46 | 0 | 0.0 | 0.0 | 0.00 | 0.00 | 0.00 | 89 | |
| 20260505023744 | 46 | 0 | 0.0 | 0.0 | 0.00 | 0.00 | 0.00 | 89 | |
| 20260505023243 | 46 | 0 | 0.0 | 0.0 | 0.00 | 0.00 | 0.00 | 89 | |
| 20260505022742 | 47 | 0 | 0.0 | 0.0 | 0.00 | 0.00 | 0.00 | 89 | |
| 20260505022242 | 46 | 0 | 0.0 | 0.0 | 0.00 | 0.00 | 0.00 | 89 | |
| 20260505021742 | 47 | 0 | 0.0 | 0.0 | 0.00 | 0.00 | 0.00 | 89 | |
| 20260505021241 | 47 | 0 | 0.0 | 0.0 | 0.00 | 0.00 | 0.00 | 88 | |
| 20260505020741 | 46 | 0 | 0.0 | 0.0 | 0.00 | 0.00 | 0.00 | 88 | |
| 20260505020241 | 47 | 0 | 0.0 | 0.0 | 0.00 | 0.00 | 0.00 | 88 | |
| 20260505015741 | 48 | 0 | 0.0 | 0.0 | 0.00 | 0.00 | 0.00 | 88 | |
| 20260505015240 | 48 | 0 | 0.0 | 0.0 | 0.00 | 0.00 | 0.00 | 88 | |
| 20260505014740 | 48 | 0 | 0.0 | 0.0 | 0.00 | 0.00 | 0.00 | 88 | |
| 20260505014240 | 48 | 0 | 0.0 | 0.0 | 0.00 | 0.00 | 0.00 | 88 | |
| 20260505013739 | 48 | 0 | 0.0 | 0.0 | 0.00 | 0.00 | 0.00 | 88 | |
| 20260505013239 | 48 | 0 | 0.0 | 0.0 | 0.00 | 0.00 | 0.00 | 87 | |
| 20260505012739 | 48 | 0 | 0.0 | 0.0 | 0.00 | 0.00 | 0.00 | 87 | |
| 20260505012239 | 49 | 0 | 0.0 | 0.0 | 0.00 | 0.00 | 0.00 | 87 | |
| 20260505011738 | 49 | 0 | 0.0 | 0.0 | 0.00 | 0.00 | 0.00 | 87 | |
| 20260505011238 | 48 | 0 | 0.0 | 0.0 | 0.00 | 0.00 | 0.00 | 87 | |
| 20260505010738 | 48 | 0 | 0.0 | 0.0 | 0.00 | 0.00 | 0.00 | 87 | |
| 20260505010237 | 49 | 0 | 0.0 | 0.0 | 0.00 | 0.00 | 0.00 | 87 | |
| 20260505005737 | 49 | 0 | 0.0 | 0.0 | 0.00 | 0.00 | 0.00 | 87 | |
| 20260505005237 | 49 | 0 | 0.0 | 0.0 | 0.00 | 0.00 | 0.00 | 87 | |
| 20260505004737 | 50 | 0 | 0.0 | 0.0 | 0.00 | 0.00 | 0.00 | 87 | |
| 20260505004236 | 49 | 0 | 0.0 | 0.0 | 0.00 | 0.00 | 0.00 | 87 | |
| 20260505003736 | 49 | 0 | 0.0 | 0.0 | 0.00 | 0.00 | 0.00 | 86 | |
| 20260505003236 | 49 | 0 | 0.0 | 0.0 | 0.00 | 0.00 | 0.00 | 86 | |
| 20260505002735 | 49 | 0 | 0.0 | 0.0 | 0.00 | 0.00 | 0.00 | 86 | |
| 20260505002235 | 50 | 0 | 0.0 | 0.0 | 0.00 | 0.00 | 0.00 | 86 | |
| 20260505001735 | 49 | 0 | 0.0 | 0.0 | 0.00 | 0.00 | 0.00 | 85 | |
| 20260505001235 | 50 | 0 | 0.0 | 0.0 | 0.00 | 0.00 | 0.00 | 85 | |
| 20260505000734 | 50 | 0 | 0.0 | 0.0 | 0.00 | 0.00 | 0.00 | 85 | |
| 20260505000234 | 52 | 0 | 0.0 | 0.0 | 0.00 | 0.00 | 0.00 | 85 | |
| 20260504235734 | 51 | 0 | 0.0 | 0.0 | 0.00 | 0.00 | 0.00 | 85 | |
| 20260504235233 | 51 | 0 | 0.0 | 0.0 | 0.00 | 0.00 | 0.00 | 85 | |
| 20260504234733 | 51 | 0 | 0.0 | 0.0 | 0.00 | 0.00 | 0.00 | 84 | |
| 20260504234233 | 51 | 0 | 0.0 | 0.0 | 0.00 | 0.00 | 0.00 | 84 | |
| 20260504233733 | 51 | 0 | 0.0 | 0.0 | 0.00 | 0.00 | 0.00 | 84 | |
| 20260504233232 | 51 | 0 | 0.0 | 0.0 | 0.00 | 0.00 | 0.00 | 84 | |
| 20260504232732 | 52 | 0 | 0.0 | 0.0 | 0.00 | 0.00 | 0.00 | 84 | |
| 20260504232232 | 52 | 0 | 0.0 | 0.0 | 0.00 | 0.00 | 0.00 | 84 | |
| 20260504231731 | 51 | 0 | 0.0 | 0.0 | 0.00 | 0.00 | 0.00 | 84 | |
| 20260504231231 | 51 | 0 | 0.0 | 0.0 | 0.00 | 0.00 | 0.00 | 83 | |
| 20260504230731 | 51 | 0 | 0.0 | 0.0 | 0.00 | 0.00 | 0.00 | 83 | |
| 20260504230231 | 52 | 0 | 0.0 | 0.0 | 0.00 | 0.00 | 0.00 | 83 | |
| 20260504225730 | 52 | 0 | 0.0 | 0.0 | 0.00 | 0.00 | 0.00 | 83 | |
| 20260504225230 | 52 | 0 | 0.0 | 0.0 | 0.00 | 0.00 | 0.00 | 82 | |
| 20260504224730 | 52 | 107 | 1.0 | 4.0 | 0.00 | 0.00 | 0.00 | 82 | |
| 20260504224229 | 52 | 113 | 0.0 | 3.0 | 0.00 | 0.00 | 0.00 | 82 | |
| 20260504223729 | 53 | 80 | 0.0 | 1.0 | 0.00 | 0.00 | 0.00 | 82 | |
| 20260504223229 | 53 | 0 | 0.0 | 0.0 | 0.00 | 0.00 | 0.00 | 81 | |
| 20260504222729 | 53 | 0 | 0.0 | 0.0 | 0.00 | 0.00 | 0.00 | 81 | |
| 20260504222228 | 53 | 0 | 0.0 | 0.0 | 0.00 | 0.00 | 0.00 | 81 | |
| 20260504221728 | 53 | 100 | 1.0 | 4.0 | 0.00 | 0.00 | 0.00 | 81 | |
| 20260504221228 | 53 | 98 | 1.0 | 3.0 | 0.00 | 0.00 | 0.00 | 80 | |
| 20260504220727 | 53 | 114 | 2.0 | 5.0 | 0.00 | 0.00 | 0.00 | 80 | |
| 20260504220227 | 53 | 105 | 2.0 | 5.0 | 0.00 | 0.00 | 0.00 | 80 | |
| 20260504215727 | 54 | 104 | 2.0 | 6.0 | 0.00 | 0.00 | 0.00 | 79 | |
| 20260504215227 | 54 | 96 | 1.0 | 4.0 | 0.00 | 0.00 | 0.00 | 78 | |
| 20260504214726 | 54 | 94 | 2.0 | 5.0 | 0.00 | 0.00 | 0.00 | 78 | |
| 20260504214226 | 55 | 87 | 1.0 | 4.0 | 0.00 | 0.00 | 0.00 | 77 | |
| 20260504213726 | 54 | 136 | 1.0 | 6.0 | 0.00 | 0.00 | 0.00 | 77 | |
| 20260504213226 | 55 | 139 | 2.0 | 6.0 | 0.00 | 0.00 | 0.00 | 76 | |
| 20260504212725 | 55 | 162 | 2.0 | 6.0 | 0.00 | 0.00 | 0.00 | 76 | |
| 20260504212225 | 55 | 134 | 2.0 | 6.0 | 0.00 | 0.00 | 0.00 | 76 | |
| 20260504211725 | 54 | 134 | 1.0 | 5.0 | 0.00 | 0.00 | 0.00 | 76 | |
| 20260504211224 | 55 | 118 | 3.0 | 6.0 | 0.00 | 0.00 | 0.00 | 76 | |
| 20260504210724 | 55 | 153 | 1.0 | 6.0 | 0.00 | 0.00 | 0.00 | 76 | |
| 20260504210224 | 55 | 136 | 1.0 | 4.0 | 0.00 | 0.00 | 0.00 | 76 | |
| 20260504205724 | 55 | 127 | 1.0 | 4.0 | 0.00 | 0.00 | 0.00 | 76 | |
| 20260504205223 | 56 | 132 | 2.0 | 7.0 | 0.00 | 0.00 | 0.00 | 76 | |
| 20260504204723 | 56 | 80 | 2.0 | 6.0 | 0.00 | 0.00 | 0.00 | 76 | |
| 20260504204223 | 56 | 103 | 3.0 | 8.0 | 0.00 | 0.00 | 0.00 | 75 | |
| 20260504203722 | 56 | 105 | 4.0 | 7.0 | 0.00 | 0.00 | 0.00 | 76 | |
| 20260504203222 | 56 | 97 | 2.0 | 6.0 | 0.00 | 0.00 | 0.00 | 76 | |
| 20260504202722 | 55 | 98 | 3.0 | 5.0 | 0.00 | 0.00 | 0.00 | 76 | |
| 20260504202222 | 56 | 87 | 2.0 | 5.0 | 0.00 | 0.00 | 0.00 | 76 | |
| 20260504201721 | 56 | 110 | 2.0 | 5.0 | 0.00 | 0.00 | 0.00 | 76 | |
| 20260504201221 | 56 | 94 | 2.0 | 6.0 | 0.00 | 0.00 | 0.00 | 76 | |
| 20260504200721 | 56 | 96 | 2.0 | 6.0 | 0.00 | 0.00 | 0.00 | 76 | |
| 20260504200220 | 57 | 96 | 1.0 | 3.0 | 0.00 | 0.00 | 0.00 | 75 | |
| 20260504195720 | 57 | 181 | 1.0 | 4.0 | 0.00 | 0.00 | 0.00 | 75 | |
| 20260504195220 | 56 | 121 | 1.0 | 5.0 | 0.00 | 0.00 | 0.00 | 74 | |
| 20260504194720 | 56 | 91 | 1.0 | 3.0 | 0.00 | 0.00 | 0.00 | 74 | |
| 20260504194220 | 57 | 129 | 2.0 | 5.0 | 0.00 | 0.00 | 0.00 | 74 | |
| 20260504193719 | 57 | 111 | 1.0 | 4.0 | 0.00 | 0.00 | 0.00 | 74 | |
| 20260504193218 | 57 | 138 | 1.0 | 5.0 | 0.00 | 0.00 | 0.00 | 74 | |
| 20260504192716 | 57 | 135 | 2.0 | 5.0 | 0.00 | 0.00 | 0.00 | 74 | |
| 20260504192216 | 57 | 121 | 2.0 | 5.0 | 0.00 | 0.00 | 0.00 | 74 | |
| 20260504191716 | 57 | 127 | 1.0 | 6.0 | 0.00 | 0.00 | 0.00 | 74 | |
| 20260504191215 | 57 | 148 | 1.0 | 4.0 | 0.00 | 0.00 | 0.00 | 73 | |
| 20260504190715 | 57 | 152 | 1.0 | 4.0 | 0.00 | 0.00 | 0.00 | 73 | |
| 20260504190215 | 57 | 118 | 0.0 | 3.0 | 0.00 | 0.00 | 0.00 | 73 | |
| 20260504185714 | 57 | 127 | 1.0 | 4.0 | 0.00 | 0.00 | 0.00 | 72 | |
| 20260504185214 | 58 | 120 | 3.0 | 7.0 | 0.00 | 0.00 | 0.00 | 72 | |
| 20260504184214 | 58 | 162 | 2.0 | 6.0 | 0.00 | 0.00 | 0.00 | 72 | |
| 20260504183713 | 57 | 148 | 3.0 | 8.0 | 0.00 | 0.00 | 0.00 | 71 | |
| 20260504183213 | 58 | 183 | 2.0 | 7.0 | 0.00 | 0.00 | 0.00 | 72 | |
| 20260504182713 | 58 | 201 | 4.0 | 6.0 | 0.00 | 0.00 | 0.00 | 72 | |
| 20260504181712 | 58 | 146 | 3.0 | 7.0 | 0.00 | 0.00 | 0.00 | 72 | |
| 20260504181212 | 58 | 134 | 2.0 | 7.0 | 0.00 | 0.00 | 0.00 | 73 | |
| 20260504180712 | 57 | 134 | 1.0 | 4.0 | 0.00 | 0.00 | 0.00 | 73 | |
| 20260504180211 | 58 | 160 | 4.0 | 7.0 | 0.00 | 0.00 | 0.00 | 72 | |
| 20260504175711 | 57 | 143 | 4.0 | 8.0 | 0.00 | 0.00 | 0.00 | 72 | |
| 20260504175211 | 57 | 139 | 3.0 | 5.0 | 0.00 | 0.00 | 0.00 | 73 | |
| 20260504174710 | 57 | 153 | 3.0 | 7.0 | 0.00 | 0.00 | 0.00 | 72 | |
| 20260504174210 | 57 | 128 | 5.0 | 9.0 | 0.00 | 0.00 | 0.00 | 72 | |
| 20260504173710 | 58 | 197 | 4.0 | 7.0 | 0.00 | 0.00 | 0.00 | 72 | |
| 20260504173209 | 58 | 127 | 4.0 | 8.0 | 0.00 | 0.00 | 0.00 | 71 | |
| 20260504172709 | 58 | 156 | 1.0 | 7.0 | 0.00 | 0.00 | 0.00 | 71 | |
| 20260504172209 | 58 | 176 | 2.0 | 5.0 | 0.00 | 0.00 | 0.00 | 72 | |
| 20260504171709 | 58 | 146 | 4.0 | 7.0 | 0.00 | 0.00 | 0.00 | 72 | |
| 20260504171208 | 58 | 155 | 3.0 | 7.0 | 0.00 | 0.00 | 0.00 | 72 | |
| 20260504170708 | 58 | 128 | 1.0 | 6.0 | 0.00 | 0.00 | 0.00 | 71 | |
| 20260504170208 | 58 | 87 | 1.0 | 7.0 | 0.00 | 0.00 | 0.00 | 72 | |
| 20260504160204 | 58 | 94 | 4.0 | 7.0 | 0.00 | 0.00 | 0.00 | 72 | |
| 20260504150701 | 56 | 101 | 5.0 | 9.0 | 0.00 | 0.00 | 0.00 | 77 | |
| 20260504141158 | 59 | 82 | 5.0 | 10.0 | 0.00 | 0.00 | 0.00 | 74 | |
| 20260504140657 | 57 | 143 | 4.0 | 8.0 | 0.00 | 0.00 | 0.00 | 75 | |
| 20260504140157 | 56 | 94 | 5.0 | 9.0 | 0.00 | 0.00 | 0.00 | 76 | |
| 20260504130652 | 57 | 107 | 4.0 | 8.0 | 0.00 | 0.00 | 0.00 | 76 | |
| 20260504130152 | 57 | 120 | 3.0 | 7.0 | 0.00 | 0.00 | 0.00 | 77 |